Theta_e
324 320 318 313 311 309 306 302 296 293 294 289 285 290 293 296 296 299 299 300 299 302 303 308 306 306 302 300 301 305 309 305 303 298 294 304 324 335 335 336 338 338 338 339 342 341 339 343 344 344 343 345 346 346 347 347 347 345 344 343 342 340 341 341 339 339 340 340 342 342 342 341 341 341 341 340 340 341 340 340 340 340 340 339 339 340 341 344 344 344 344 345 345 344 344 344 343
319 318 314 314 315 305 302 298 291 287 286 284 287 288 291 293 299 297 298 297 299 303 306 312 314 315 315 314 314 309 305 314 311 314 321 329 334 333 336 338 338 337 338 340 341 339 337 339 344 343 344 345 347 347 347 347 346 345 344 344 343 343 342 342 341 340 341 344 343 343 342 341 339 339 340 340 340 340 340 340 340 341 341 340 341 341 341 342 343 344 345 345 344 344 344 343 343
317 316 311 311 310 304 300 298 295 284 286 285 283 289 291 295 296 297 296 299 302 307 309 310 309 309 308 309 304 304 300 319 322 324 328 334 331 332 337 338 338 338 339 340 340 338 336 339 343 344 343 345 347 347 347 347 346 346 346 344 343 343 341 340 338 342 343 344 344 344 344 341 340 340 339 339 339 339 340 339 340 340 341 341 340 341 341 341 343 343 343 344 344 343 343 343 343
312 314 311 306 305 300 295 291 287 286 290 283 283 288 291 294 296 297 295 301 305 306 305 303 307 306 307 306 308 312 313 316 323 327 326 330 331 336 337 338 338 339 338 340 339 336 337 340 343 345 344 345 346 347 346 346 346 346 346 345 344 341 341 340 339 339 340 341 342 344 344 344 343 343 343 342 341 341 341 340 339 340 340 340 340 341 342 341 342 343 343 343 343 343 343 342 342
313 316 310 305 301 301 296 291 288 285 287 285 285 287 291 291 297 294 301 301 302 300 301 302 307 312 312 311 310 305 306 317 325 326 328 330 336 338 338 338 339 338 338 338 338 336 336 341 343 345 344 345 347 347 346 346 346 346 345 345 345 343 342 340 340 340 339 340 343 343 343 343 344 344 344 344 344 343 342 342 341 341 341 341 341 340 340 342 342 343 343 342 343 342 342 342 342
310 312 313 308 303 304 296 293 290 289 289 287 289 291 292 294 298 298 301 302 300 300 301 302 307 308 312 314 314 308 315 314 321 324 326 329 336 337 338 337 338 338 339 338 337 336 336 341 342 344 344 344 346 345 346 346 347 347 346 346 344 343 342 342 340 339 339 339 340 342 343 343 343 343 344 344 344 344 343 342 342 341 341 341 341 341 342 342 342 343 343 342 342 341 341 342 342
312 305 304 303 300 300 292 288 286 286 293 290 291 292 296 295 301 300 300 301 302 303 304 308 312 310 309 311 314 319 320 323 322 322 327 332 337 337 338 338 339 339 340 338 337 337 337 341 344 345 345 344 343 345 345 346 346 346 346 345 343 343 342 341 340 339 337 338 341 341 342 342 343 343 343 342 341 341 341 341 342 342 342 341 341 342 341 342 342 342 342 342 342 340 340 341 341
312 306 302 295 292 296 291 288 289 287 291 292 292 296 297 299 299 299 299 299 301 302 308 310 307 304 305 313 307 316 321 321 323 329 334 336 336 336 337 338 338 338 339 339 337 336 342 340 343 344 344 344 343 344 344 346 346 345 346 345 343 343 342 341 340 338 338 339 341 340 341 342 342 342 342 342 341 341 341 341 341 341 340 340 339 340 340 341 341 341 341 341 341 340 340 340 340
309 306 302 296 294 291 287 290 290 290 290 290 295 299 304 300 300 301 299 299 300 301 305 305 301 301 304 310 309 313 318 324 330 333 335 336 335 336 337 336 337 338 339 340 336 335 336 339 342 343 343 344 343 343 344 344 345 345 345 345 344 344 342 341 339 339 338 338 338 338 339 341 342 342 341 340 340 339 339 340 340 340 340 339 339 339 340 341 341 341 340 340 340 340 339 339 339
306 303 294 294 290 292 286 286 289 289 291 290 297 300 301 299 299 299 298 299 301 301 302 300 301 300 305 307 307 316 318 324 332 332 334 335 335 335 335 336 338 338 338 339 337 339 337 342 339 341 342 344 344 343 343 344 345 345 344 344 344 343 341 341 340 338 338 338 338 339 341 341 340 339 340 339 339 339 339 339 339 339 339 339 339 339 339 339 339 341 339 339 339 339 339 338 338
299 300 298 295 289 288 290 286 286 289 291 291 297 299 300 299 299 298 299 300 299 300 302 307 309 309 309 309 307 314 319 323 331 329 333 334 334 334 334 336 337 338 338 339 340 340 338 337 341 339 340 341 342 343 344 344 344 344 344 344 344 342 341 340 339 338 337 337 337 339 341 339 339 339 339 339 339 339 339 339 340 339 339 338 338 338 339 338 338 340 339 338 337 337 337 337 337
298 297 297 289 287 288 288 288 288 289 290 293 299 300 298 300 297 298 298 301 298 300 302 306 306 310 307 304 308 316 321 324 330 331 333 333 333 334 335 335 336 338 339 340 340 339 336 334 336 340 337 338 338 340 342 342 344 344 344 344 343 342 341 339 338 337 337 336 336 339 341 340 340 340 339 339 339 339 339 338 338 338 338 338 338 338 338 338 337 339 338 337 336 335 335 335 335
297 296 291 290 289 290 289 291 289 291 287 291 298 300 297 297 297 298 298 299 297 298 301 301 313 310 303 302 307 315 320 324 328 331 332 332 332 334 335 336 336 337 339 340 340 339 338 335 334 336 334 334 335 336 336 339 341 343 344 343 343 342 340 339 337 336 336 337 338 340 341 342 341 340 340 339 340 339 338 338 338 339 338 337 337 337 337 337 337 338 337 337 336 335 335 335 334
298 297 294 292 289 289 289 290 287 291 290 291 293 296 298 297 296 297 298 298 297 299 300 301 314 312 309 310 311 313 319 323 327 329 331 331 333 334 334 335 335 337 338 339 339 339 339 336 333 331 332 332 331 332 333 335 337 340 341 341 341 341 341 341 340 340 340 339 338 338 339 340 340 340 339 338 338 338 338 338 338 337 337 337 336 336 337 336 337 337 336 336 336 335 334 333 333
303 300 293 291 287 289 290 292 290 288 290 291 296 296 297 298 296 296 299 298 297 298 303 305 311 306 303 308 306 316 321 324 326 328 330 332 333 333 334 335 336 337 338 339 339 339 339 338 336 332 330 330 329 330 329 332 333 335 337 337 338 339 339 338 338 337 336 335 335 334 334 334 334 335 334 335 335 335 334 331 333 336 336 336 336 336 336 337 336 336 335 335 334 333 333 332 332
302 297 294 293 288 289 291 291 290 289 290 291 297 295 297 297 295 298 298 299 298 303 303 307 309 301 303 307 307 321 324 324 326 328 331 331 331 332 334 335 335 336 337 338 337 338 339 338 338 336 333 330 328 329 328 328 330 331 334 335 336 336 334 334 333 332 329 328 328 328 328 328 328 328 328 329 330 332 331 327 331 336 335 336 336 336 336 335 336 336 335 334 333 332 331 330 331
302 297 294 287 290 289 292 292 291 289 289 291 294 296 297 295 297 297 298 299 302 304 310 312 307 313 311 309 310 324 324 325 325 329 330 330 331 330 332 333 334 334 335 336 336 337 337 337 337 337 336 334 332 329 327 327 328 329 330 330 330 330 330 330 329 325 322 322 322 322 323 323 322 323 324 324 324 325 323 325 330 335 336 336 335 334 335 334 335 334 334 333 332 330 325 324 324
304 296 288 288 288 291 294 293 292 291 292 293 293 295 296 293 296 299 303 305 303 305 308 308 312 313 313 314 317 325 324 325 326 328 328 329 330 328 329 330 331 331 333 333 335 336 336 336 336 337 336 336 335 334 331 328 330 329 326 325 324 326 326 325 323 322 326 321 321 322 321 322 321 319 322 327 323 324 324 324 326 331 334 334 334 334 334 334 333 334 333 332 331 328 321 314 314
298 293 292 292 290 294 297 293 294 294 293 294 295 293 297 297 296 297 299 299 303 304 308 307 310 312 315 317 322 323 324 323 324 326 327 327 328 327 328 329 330 331 331 332 333 335 335 336 336 335 336 336 336 335 334 332 332 330 326 322 322 324 324 321 320 321 318 319 318 319 319 320 319 318 321 322 322 322 323 323 326 329 331 331 332 333 333 332 332 333 332 331 327 321 314 313 312
297 295 291 291 295 293 294 294 295 294 296 295 295 294 294 296 296 297 298 298 298 300 305 306 307 309 312 316 321 322 323 322 323 324 326 327 328 328 328 327 328 330 331 332 333 335 336 335 335 335 335 336 335 335 334 332 332 331 327 322 322 320 319 319 319 318 318 317 318 318 318 317 317 317 324 325 325 320 320 321 323 324 326 326 326 327 329 329 331 330 329 324 318 315 314 312 314
298 295 291 292 292 294 295 292 293 294 295 296 296 294 295 296 295 296 295 298 297 298 305 307 308 311 314 318 320 321 322 321 321 323 325 326 328 330 330 329 328 329 331 332 332 333 335 335 335 335 336 336 335 335 334 332 332 331 327 322 322 320 319 319 319 319 317 317 317 318 318 317 316 317 319 320 319 319 319 320 321 319 318 317 319 317 315 314 313 312 313 313 312 311 311 311 313
298 295 295 295 294 294 294 293 294 292 291 296 293 297 297 296 297 295 299 297 297 300 301 307 311 316 316 317 320 321 321 321 321 321 323 325 326 327 329 329 330 331 330 329 330 332 334 335 335 336 336 335 335 334 333 332 332 331 329 327 324 321 321 320 319 320 320 319 317 318 318 318 317 318 317 316 318 318 319 318 316 314 314 315 315 314 313 312 311 309 309 312 311 312 311 312 309
296 298 296 294 293 294 294 295 295 294 295 294 293 297 295 297 296 294 300 299 297 296 300 307 315 318 320 321 321 320 321 321 321 320 321 323 324 327 328 329 329 328 328 328 329 330 333 334 335 336 334 335 335 336 334 333 332 332 331 329 327 324 322 322 321 320 321 319 319 318 319 318 317 317 317 317 319 316 317 316 316 315 315 315 315 314 311 310 311 312 311 311 310 311 312 310 310
298 296 294 296 293 295 294 295 292 293 295 295 294 295 296 294 295 294 295 298 295 292 293 307 316 317 319 319 320 321 321 321 321 322 322 324 325 326 327 327 328 329 327 327 327 328 329 332 334 335 334 335 334 336 334 332 332 332 331 328 327 324 323 323 322 321 320 320 319 320 319 320 319 317 316 316 317 316 316 316 315 316 315 314 315 312 309 309 309 310 311 310 308 309 311 312 309
296 296 296 295 293 291 292 292 291 294 294 293 294 296 295 294 294 292 294 297 295 294 299 314 317 318 319 319 319 320 320 321 321 322 322 323 323 323 322 325 326 326 326 326 327 327 328 330 332 333 334 335 335 335 333 332 332 332 330 329 328 324 324 324 324 322 321 320 319 320 319 320 319 319 317 317 314 317 315 315 315 317 315 314 314 313 310 309 309 308 308 308 306 307 306 310 308
299 300 297 293 292 293 292 294 293 291 294 293 295 294 293 294 294 292 296 296 294 297 308 315 316 316 317 318 319 319 319 320 321 321 322 322 321 321 321 323 324 324 326 327 326 327 329 331 332 332 333 335 336 335 334 332 332 331 330 329 329 325 325 325 322 322 322 321 320 320 320 321 320 320 318 315 316 316 314 313 315 315 315 312 311 315 312 309 310 308 307 307 308 308 307 309 309
297 298 296 295 293 292 293 295 294 293 295 293 295 292 294 292 294 292 292 293 298 299 308 313 316 316 317 318 318 319 319 320 320 322 321 320 320 322 322 322 323 325 325 325 326 327 327 330 331 332 332 332 335 335 335 333 332 331 330 330 328 326 325 324 323 323 321 321 321 320 320 320 321 320 319 317 316 316 314 314 315 313 312 311 312 315 310 312 309 310 311 310 308 307 309 308 308
297 296 294 294 291 291 292 293 293 294 296 291 294 293 292 292 294 293 293 295 299 300 308 313 314 315 316 317 317 318 319 321 321 320 320 319 321 322 322 322 322 324 324 325 326 327 326 329 331 332 332 332 333 335 334 333 332 331 329 328 327 326 325 324 324 323 321 322 320 320 319 320 319 319 318 317 317 316 314 314 314 312 314 311 313 313 312 311 311 310 308 308 308 309 308 307 306
299 295 292 292 292 293 292 293 294 294 295 291 292 294 291 292 292 297 293 298 300 302 307 312 313 314 315 316 317 317 319 320 320 320 321 322 323 324 323 324 324 324 325 326 326 325 326 327 330 331 332 331 332 333 334 334 333 332 329 328 327 326 325 324 324 324 323 322 321 320 320 319 319 319 317 317 316 317 315 315 312 313 314 314 313 312 310 309 308 308 309 308 308 308 308 307 306
296 294 292 292 291 289 291 293 293 294 294 290 294 285 286 293 296 295 293 301 300 301 304 311 312 312 314 314 316 317 318 316 318 320 321 322 322 323 323 325 324 325 325 325 325 325 327 328 329 331 331 332 331 333 333 333 333 331 330 329 327 326 325 324 324 324 324 323 322 320 320 319 318 319 318 316 315 315 315 315 314 313 312 312 312 310 311 309 310 308 307 309 309 308 307 305 306
296 294 291 288 288 286 291 292 292 293 294 293 293 287 288 292 294 294 293 299 301 300 301 307 310 311 312 314 315 316 317 318 319 320 321 322 322 323 323 324 324 325 324 324 325 326 326 327 328 330 329 331 330 331 330 331 331 331 330 329 328 327 326 325 324 324 323 323 322 321 320 319 318 318 318 318 316 315 314 313 312 314 312 309 311 310 312 310 309 311 306 308 306 306 305 305 305
291 289 288 287 286 287 290 291 292 294 293 292 293 287 291 293 294 289 289 296 300 299 299 302 305 307 310 312 313 314 316 318 318 319 320 320 321 322 323 323 324 324 324 325 325 326 326 327 327 329 327 330 330 331 331 331 331 330 330 327 329 327 326 326 325 324 324 323 323 322 321 320 319 318 318 317 317 315 315 314 314 312 310 310 310 309 309 311 310 308 306 308 309 309 305 308 305
291 288 284 285 286 288 290 292 290 293 292 293 291 287 288 291 290 290 291 294 296 298 296 299 302 303 305 309 311 313 313 313 315 317 318 320 321 322 323 323 324 324 325 324 324 325 326 326 326 327 327 328 330 330 330 330 330 330 330 329 329 328 327 326 326 325 324 324 323 323 322 321 319 319 317 316 317 316 314 315 313 313 310 311 309 309 309 311 311 310 307 305 307 308 307 309 310
287 285 285 286 286 286 287 290 292 292 292 291 291 288 288 290 290 287 289 292 292 293 295 296 299 301 303 305 308 310 311 313 313 316 318 320 321 322 324 322 323 324 324 324 325 325 325 326 326 326 328 328 330 330 330 329 329 329 329 329 327 328 327 327 326 325 324 324 323 323 323 322 321 321 319 317 316 316 315 315 314 312 311 312 312 311 311 310 310 312 313 310 309 310 311 311 312
285 283 283 284 285 285 288 289 291 292 292 291 289 288 291 294 294 290 290 291 292 293 294 293 294 297 298 300 303 306 309 311 313 315 318 319 320 321 323 323 323 323 324 324 324 324 325 325 325 324 326 327 328 330 329 328 328 327 328 328 328 328 328 327 327 325 325 324 324 323 323 324 323 324 322 319 319 316 314 314 315 313 313 314 315 313 312 313 313 313 314 314 311 312 313 312 311
287 287 286 285 286 286 286 290 290 293 290 289 288 290 292 294 294 294 291 290 291 292 290 290 290 291 293 295 298 301 304 308 312 313 314 317 320 321 322 323 323 323 323 324 323 324 324 324 324 325 325 327 327 328 328 327 326 325 325 326 327 327 328 326 326 327 327 326 326 325 325 326 326 325 324 322 322 318 316 316 317 317 316 315 315 314 314 313 313 312 313 313 312 311 310 311 311
290 290 288 287 287 287 288 289 291 292 290 289 289 290 292 293 293 293 290 289 289 289 290 292 291 291 291 292 295 297 299 303 307 307 307 312 316 319 320 321 322 322 323 323 323 323 324 324 323 323 325 325 326 326 326 327 325 325 325 326 327 328 328 327 326 327 328 328 328 327 327 326 327 326 325 324 323 320 320 318 318 317 317 316 316 316 316 315 315 314 313 311 311 310 310 310 310
289 288 287 287 287 287 288 291 291 289 290 287 287 287 289 291 292 292 290 290 291 291 292 292 293 292 292 292 293 294 297 298 297 299 304 306 311 315 318 319 319 320 321 322 322 323 324 324 324 324 324 324 326 327 327 326 327 328 327 327 327 328 328 327 327 328 328 328 328 328 328 327 327 327 325 325 324 323 321 319 319 318 317 316 316 316 316 312 313 313 312 311 311 311 310 309 310
288 287 286 285 285 286 288 289 290 289 289 286 285 287 290 292 293 293 290 291 291 292 293 295 294 293 293 293 293 293 293 295 296 298 300 305 307 311 315 318 319 321 322 322 323 323 323 324 324 324 325 325 325 326 327 326 328 327 328 326 327 322 323 329 329 328 326 325 326 327 328 328 328 327 326 325 325 324 323 322 320 318 317 317 315 314 314 313 313 313 312 312 310 307 309 310 311
287 286 285 285 286 286 283 286 289 289 287 286 284 284 288 291 290 290 291 291 292 294 292 293 293 294 295 295 295 294 293 294 295 297 299 302 305 309 312 315 318 320 320 321 322 323 323 323 324 325 325 325 325 326 324 327 327 327 325 321 323 324 323 322 326 326 327 326 324 324 324 326 327 327 327 326 325 325 324 323 322 320 318 317 316 315 314 314 313 312 311 311 312 310 307 309 309
287 287 286 285 286 287 287 286 288 289 289 286 284 285 286 289 290 290 290 288 290 292 291 291 291 293 296 296 294 294 295 295 295 296 297 298 302 307 311 314 316 318 320 321 322 323 324 323 324 325 325 325 326 324 324 326 323 320 320 315 315 316 314 320 325 326 328 326 326 325 324 323 326 327 327 326 325 325 324 324 322 321 319 316 316 315 315 314 314 314 313 311 310 311 310 308 307
285 287 288 287 287 288 289 289 289 288 286 287 288 280 279 281 284 287 291 286 287 288 290 292 293 293 293 293 294 296 295 295 295 296 296 297 300 304 308 311 313 316 318 320 321 323 324 324 324 324 325 325 325 325 325 325 324 325 321 322 321 321 322 321 321 323 326 326 326 326 325 325 325 326 327 326 326 324 325 324 323 321 320 319 317 316 316 315 314 313 312 312 310 311 312 309 307
283 285 289 289 289 289 289 288 288 282 281 286 285 284 275 280 284 286 285 283 287 289 288 291 292 293 293 293 295 295 295 295 293 293 292 293 295 297 303 308 312 314 317 319 320 321 323 324 324 324 325 325 325 325 324 323 324 324 324 324 325 324 324 324 325 322 326 327 327 327 326 324 325 325 325 326 325 324 324 324 322 321 320 319 315 316 315 315 315 314 313 311 312 311 310 309 309
282 286 288 289 288 288 288 289 288 283 285 288 285 283 279 281 288 285 284 284 286 288 289 290 292 292 292 294 294 294 295 294 295 294 294 294 296 297 300 305 310 314 316 317 318 319 321 322 323 323 324 323 325 325 323 324 324 324 323 324 324 324 324 324 322 317 318 322 326 326 326 325 324 324 324 324 325 324 324 323 323 321 320 318 316 316 317 317 316 315 311 312 311 311 311 310 310
283 288 289 288 290 289 289 289 285 285 286 283 284 284 281 277 282 284 283 285 286 288 289 290 292 292 293 293 294 294 295 295 294 295 294 294 295 296 298 301 307 311 313 315 317 318 320 321 321 321 323 322 322 323 322 323 323 324 324 324 323 323 324 320 312 313 318 319 324 325 325 325 324 324 324 324 324 325 322 323 323 321 320 317 314 317 317 316 315 314 311 309 311 311 311 311 310
286 288 289 289 288 288 289 285 286 284 282 281 282 282 279 277 279 283 282 284 284 286 290 291 291 291 290 291 292 292 292 292 293 294 295 295 295 296 297 297 299 305 309 310 310 312 315 316 317 318 320 321 322 322 322 323 322 322 323 323 322 322 317 310 312 313 313 314 321 322 324 324 324 323 323 323 323 324 323 323 322 322 321 319 314 316 316 315 313 312 312 312 312 311 308 309 310
290 290 288 286 284 284 283 284 282 282 277 282 281 282 281 277 281 286 286 285 288 290 289 289 289 288 288 289 290 292 292 292 293 293 294 294 293 294 294 297 299 299 302 305 308 310 312 314 316 317 319 320 320 322 321 322 322 322 323 322 322 321 315 314 313 310 311 311 318 319 321 323 323 324 323 323 323 324 324 321 322 321 320 316 315 316 315 314 313 313 313 312 308 308 309 309 308
292 285 283 286 284 282 283 280 282 277 277 278 278 279 279 277 277 280 285 285 284 289 290 291 290 288 289 289 291 292 291 291 291 292 293 293 294 295 294 296 297 298 298 303 306 306 309 312 313 316 316 317 318 320 320 322 322 322 322 322 321 320 317 315 315 314 312 313 313 315 317 320 321 322 322 322 322 323 322 322 320 322 320 320 318 316 315 314 309 309 309 311 311 311 310 308 308
289 285 285 283 276 278 276 278 276 276 276 280 278 279 279 281 282 284 286 286 288 287 288 290 289 289 289 290 292 292 291 290 291 292 293 293 296 297 296 296 295 296 299 301 304 305 307 308 311 314 315 314 316 317 319 320 320 321 321 321 320 318 316 316 316 315 312 314 312 312 315 318 319 319 320 321 322 322 321 321 321 320 319 317 317 317 315 314 314 313 312 310 310 309 309 308 308
286 286 282 280 274 274 273 268 268 269 275 277 279 280 278 279 281 288 290 294 294 291 289 289 289 289 290 292 293 293 291 290 291 292 292 293 294 295 294 294 295 296 296 298 299 301 303 305 307 310 313 310 311 313 316 317 318 319 319 319 319 317 316 316 316 316 314 315 314 313 315 318 318 320 320 320 322 322 321 321 320 320 319 318 317 317 317 315 314 314 312 311 310 309 308 307 307
286 284 286 280 277 273 271 268 273 273 276 276 279 278 275 277 282 284 291 292 292 291 289 289 288 289 289 289 291 292 292 290 289 289 291 292 293 294 295 294 293 294 295 295 294 296 296 299 302 305 307 305 308 311 312 315 316 315 315 316 317 316 316 315 316 316 315 313 312 312 312 315 317 319 320 321 318 320 320 319 318 318 317 317 316 315 314 313 313 311 310 309 307 307 306 306 306
285 285 286 282 284 281 277 274 274 271 274 275 276 278 278 282 283 287 290 289 289 289 288 287 288 289 288 289 292 294 293 292 291 291 292 291 292 292 292 293 293 293 294 294 295 295 297 298 299 302 306 305 306 307 310 313 314 314 313 314 314 313 312 314 313 311 313 314 312 313 311 314 317 317 317 316 315 317 317 316 315 315 315 315 314 314 313 313 312 311 309 309 309 308 307 305 304
285 285 285 285 286 283 276 275 277 274 272 274 274 278 280 280 287 292 288 287 289 287 287 287 289 289 288 291 293 293 293 292 292 292 292 292 293 293 293 294 293 294 295 295 296 295 297 296 298 299 301 300 304 305 308 309 309 309 308 311 312 313 314 314 314 312 312 311 311 310 311 312 314 316 315 315 314 314 314 313 313 312 312 312 311 311 311 310 310 309 307 305 304 303 305 305 305
285 281 285 284 287 285 282 276 271 272 272 274 273 278 278 278 279 284 285 285 289 288 288 288 288 287 289 292 293 293 293 292 291 292 293 293 294 295 294 294 294 295 295 295 295 294 295 296 296 298 297 301 299 302 303 304 306 307 306 308 310 313 313 313 313 312 310 310 309 310 311 312 314 315 315 313 312 310 310 306 308 307 306 306 305 304 302 302 303 303 303 302 302 304 301 298 297
289 286 288 287 281 280 279 276 270 269 268 266 271 275 276 277 282 280 283 285 290 291 288 286 289 288 290 292 292 291 290 290 291 292 293 296 296 296 293 295 296 295 294 295 297 299 297 295 295 296 298 299 300 301 302 303 307 308 309 309 309 309 310 310 310 310 311 311 311 312 313 311 311 310 310 309 308 306 304 303 303 302 302 301 300 299 299 298 298 297 296 295 294 297 295 293 292
287 287 285 285 283 281 277 278 275 276 272 269 271 273 279 281 281 283 288 287 287 289 286 288 290 291 291 291 292 292 291 292 292 292 293 295 296 295 294 295 295 297 298 298 298 298 296 295 296 296 298 300 301 302 303 305 304 306 305 305 305 307 309 311 311 311 312 312 312 311 309 309 308 308 307 306 303 302 301 299 298 298 297 297 297 295 295 295 294 293 293 290 290 293 292 290 290
284 283 282 284 282 282 280 277 276 277 269 267 267 271 276 280 284 288 291 292 290 288 289 289 291 291 291 291 292 291 291 292 292 293 293 294 294 294 294 294 295 295 296 297 298 298 297 297 298 300 303 303 304 303 305 306 308 308 308 309 310 310 309 311 312 312 311 309 308 308 307 305 304 303 302 301 300 299 299 298 297 296 296 296 295 292 291 292 291 289 289 288 289 290 289 287 287
288 286 283 284 280 279 278 279 278 271 274 271 267 276 276 283 287 291 292 293 292 290 289 289 289 290 290 290 290 290 292 292 292 292 293 293 293 292 293 294 293 295 296 297 297 299 299 299 300 302 304 305 305 306 307 307 308 310 310 310 310 309 308 308 308 308 307 306 305 304 302 301 299 297 299 299 297 297 297 297 296 295 293 293 292 291 289 291 290 290 288 290 288 288 288 286 287
Wind_Speed
8 7 5 1 2 2 2 7 1 3 2 1 1 0 2 0 1 1 2 1 1 1 0 2 4 4 2 3 6 4 1 7 5 8 4 1 1 6 6 8 8 7 7 5 4 4 4 6 9 9 10 10 10 12 12 12 10 14 13 12 13 12 12 13 12 13 14 14 15 15 15 15 15 16 16 16 16 16 16 17 16 17 17 16 16 17 17 18 18 18 18 19 19 19 19 19 19
5 6 4 1 0 2 1 1 3 3 5 3 3 1 2 1 1 3 5 3 2 1 1 8 8 9 10 10 8 3 3 2 2 0 1 1 5 3 6 9 9 10 6 5 5 4 4 4 8 8 9 10 10 11 12 11 10 14 13 13 13 12 12 14 14 12 13 14 15 15 15 15 15 15 16 16 16 16 16 16 16 16 17 17 15 16 16 17 17 18 18 18 19 19 18 18 18
5 6 5 4 4 5 2 4 2 1 2 1 3 4 2 3 4 4 5 3 4 6 4 5 5 4 2 1 3 2 1 1 2 1 2 6 10 5 6 8 7 8 7 5 5 5 4 4 8 9 10 11 11 10 11 11 11 13 13 12 12 12 13 12 12 14 13 14 14 14 14 16 14 14 15 15 16 16 16 15 15 16 17 17 16 16 16 16 17 17 18 18 18 18 19 18 18
1 3 0 2 1 4 1 3 4 3 1 3 2 2 2 5 5 5 3 2 7 5 1 2 4 2 1 5 1 2 2 1 0 4 5 7 2 7 7 8 7 6 6 5 5 4 4 6 8 8 8 10 11 11 11 10 10 13 12 12 12 12 12 12 11 13 12 12 13 14 14 13 14 15 15 15 16 16 15 15 15 15 16 16 17 16 16 17 17 17 17 17 17 17 17 18 17
3 2 2 4 3 2 1 0 3 3 2 4 2 3 3 4 6 4 2 1 1 0 1 1 4 4 0 5 1 0 2 1 3 1 3 1 5 7 7 7 7 7 6 5 5 4 4 7 7 8 9 11 12 11 11 11 10 11 11 11 12 11 12 12 11 12 12 12 13 13 13 13 14 14 15 15 15 15 15 14 14 15 15 16 16 17 16 16 17 17 17 17 17 18 17 16 17
4 2 3 2 0 2 4 1 0 2 6 6 0 3 5 7 7 6 4 2 4 2 3 3 4 4 2 1 1 1 2 2 2 0 3 4 9 8 8 7 7 7 6 5 5 4 4 7 8 8 10 11 12 11 11 11 12 10 11 12 12 12 11 12 12 10 11 12 12 13 13 12 13 14 14 15 14 14 14 14 14 15 15 15 16 16 16 16 17 17 18 17 17 17 17 16 16
2 4 5 3 2 4 3 1 3 3 7 6 3 2 6 5 6 7 3 1 2 1 1 3 4 4 4 1 1 1 1 2 1 2 3 5 9 9 8 7 7 8 7 6 4 4 4 8 8 9 7 8 11 10 10 11 12 11 11 12 12 11 12 12 11 11 10 12 12 12 12 12 12 13 13 13 13 13 13 13 13 14 14 14 14 15 16 16 16 16 17 17 17 16 16 16 16
1 1 1 2 1 2 1 1 4 5 2 6 2 4 6 8 5 5 7 4 3 1 1 3 1 5 1 3 2 2 5 0 1 6 9 9 9 9 8 7 9 10 8 6 4 4 8 8 9 9 9 9 9 10 10 10 11 11 11 10 12 12 12 12 11 10 9 12 12 11 12 12 12 12 13 13 13 13 13 14 13 14 14 13 13 14 15 15 16 16 17 17 16 15 15 15 15
4 5 0 4 1 3 2 2 3 2 5 2 4 3 4 5 6 7 5 2 1 1 4 4 3 4 2 2 1 2 3 2 4 10 10 10 10 9 7 8 10 9 8 6 5 4 4 7 9 9 9 8 8 10 10 10 11 11 11 10 11 12 12 11 10 10 9 10 12 11 11 11 11 12 12 12 12 12 13 12 12 13 13 13 12 13 14 14 15 15 15 15 15 15 14 14 14
1 2 2 1 4 1 2 4 0 3 3 2 4 5 7 4 4 1 5 3 4 5 1 0 1 3 3 4 1 1 1 0 7 9 9 10 9 8 7 8 8 10 9 6 5 4 3 8 8 8 8 8 8 9 10 9 10 12 12 11 11 12 12 11 10 9 9 9 10 11 9 10 10 11 11 12 12 12 12 12 12 12 13 13 12 12 13 13 14 14 14 15 15 15 14 13 13
1 5 2 2 1 2 3 4 4 5 1 3 1 1 3 3 3 1 1 2 1 4 2 2 5 4 4 1 2 2 2 2 10 10 9 10 9 9 7 6 7 9 10 8 7 5 4 4 8 8 8 8 7 8 8 8 10 11 11 11 11 12 11 11 10 9 9 9 9 10 8 8 10 11 11 11 10 10 11 11 11 12 12 12 12 12 11 12 12 12 13 14 15 15 14 13 12
1 1 2 2 2 6 5 3 3 5 5 1 2 1 2 5 2 2 2 7 2 3 4 5 4 6 4 1 1 1 1 5 8 9 9 9 8 8 8 6 7 7 8 8 7 5 4 3 4 7 7 7 7 6 6 7 8 8 9 12 11 11 11 10 9 9 8 8 9 9 8 10 11 11 11 11 10 10 10 11 11 11 11 11 11 11 11 11 11 11 12 13 14 14 14 12 11
2 1 4 3 1 1 1 1 3 2 3 3 4 1 3 4 4 5 5 2 3 5 1 5 9 2 3 3 2 2 3 7 5 9 9 8 7 6 6 7 7 8 7 7 7 6 5 3 3 3 4 6 6 6 6 6 6 7 8 10 9 10 10 10 9 8 8 8 9 10 9 10 10 11 11 10 10 10 11 10 10 10 10 10 11 11 11 10 10 10 10 11 12 13 13 13 12
2 5 5 3 1 1 3 2 2 1 4 2 2 1 5 3 4 4 5 5 4 4 2 5 6 5 2 1 2 2 6 5 5 7 7 7 7 7 7 7 7 8 8 8 7 7 5 4 3 3 3 3 3 5 6 6 5 5 7 8 8 8 8 8 8 7 8 10 9 8 8 9 11 11 11 10 10 9 8 7 7 9 9 9 9 10 10 9 9 9 8 9 10 11 13 13 12
1 2 4 2 1 1 2 3 4 4 6 3 3 5 3 3 1 4 6 8 5 1 1 1 3 3 5 7 4 8 8 7 7 7 8 7 7 7 7 7 8 8 8 8 7 7 7 5 4 3 3 3 3 3 4 4 5 6 7 8 8 8 8 8 8 9 9 10 9 8 9 9 10 10 10 9 8 8 8 8 6 6 8 9 9 9 9 9 8 7 7 7 9 10 11 12 11
2 4 3 1 1 2 3 2 1 1 6 4 1 4 6 1 2 5 4 1 1 1 1 2 0 0 2 9 5 13 9 9 7 9 9 9 7 6 7 7 8 8 8 7 8 6 6 6 4 4 3 3 3 3 3 3 5 6 7 7 8 8 8 8 9 9 10 10 10 9 9 7 7 7 9 7 9 8 7 5 5 5 7 8 9 9 8 7 7 6 6 6 8 8 9 9 9
1 2 0 3 3 2 3 2 5 3 4 3 1 5 7 3 0 1 1 1 8 2 2 1 1 1 4 3 2 11 8 9 9 11 10 8 7 6 6 6 7 8 7 8 8 7 8 7 7 4 4 3 3 3 3 3 4 6 5 7 8 7 8 8 9 9 9 9 8 8 7 5 4 4 5 4 6 5 6 7 6 6 5 6 7 8 8 7 5 5 5 6 7 8 7 8 8
0 1 3 1 3 3 4 4 7 1 2 4 4 7 7 3 2 1 2 6 3 2 2 4 2 2 2 3 1 10 11 12 11 14 11 10 8 8 7 8 9 10 8 8 8 8 9 6 8 7 5 5 4 3 2 3 3 4 3 3 3 4 5 6 6 4 6 4 7 6 4 4 4 3 4 5 4 4 5 7 6 6 6 6 6 7 7 5 5 4 4 6 7 6 7 5 4
1 1 2 7 4 4 4 2 5 1 4 4 6 5 7 7 9 3 4 1 1 2 1 3 1 4 4 3 9 12 12 11 12 13 14 13 10 11 10 9 11 10 10 7 7 10 8 7 7 8 7 7 6 4 3 4 4 3 3 3 3 4 4 4 3 4 4 4 4 4 3 4 3 3 4 4 4 5 4 6 6 6 6 6 6 5 5 5 5 4 5 5 6 6 4 3 4
3 3 3 5 6 4 4 3 3 4 1 2 5 5 5 4 5 2 3 6 1 8 6 1 3 2 2 5 9 10 11 11 11 12 14 14 12 12 11 11 12 12 11 9 8 7 7 7 9 7 7 8 8 5 3 3 4 3 3 3 3 3 3 3 3 3 3 3 3 4 3 3 3 3 4 5 5 4 3 4 5 6 5 5 6 4 4 4 4 5 5 5 3 2 3 3 4
1 1 3 3 2 1 1 4 4 5 4 2 4 2 3 2 3 4 4 6 5 6 7 10 12 8 7 9 11 10 12 11 9 10 12 12 11 10 11 11 10 10 8 7 7 9 10 9 8 7 7 8 8 6 4 4 4 3 3 3 4 3 3 2 3 3 3 3 3 3 3 3 3 3 3 3 3 3 3 2 2 2 2 2 3 2 1 2 2 1 2 2 1 2 2 3 4
1 3 3 2 0 1 5 2 3 3 5 4 2 9 7 2 1 4 12 10 9 11 9 6 7 12 13 12 11 11 13 13 12 11 13 14 14 12 9 7 5 5 6 8 9 8 9 9 9 7 8 9 9 7 7 5 5 4 4 4 4 3 3 3 3 3 4 3 3 4 4 4 4 3 3 3 4 3 3 3 2 2 1 2 1 1 1 1 1 1 1 1 1 1 2 2 3
3 3 4 4 3 3 2 1 2 1 2 5 7 4 4 7 2 4 10 12 4 3 4 8 8 14 15 15 14 12 13 15 14 14 13 13 13 12 11 9 9 9 8 9 8 8 9 9 9 8 10 9 10 6 5 5 6 5 5 5 5 4 4 4 4 4 4 3 3 4 5 4 4 4 4 3 4 3 4 3 2 2 2 2 1 1 1 0 0 0 0 0 1 2 2 2 2
3 6 1 5 2 6 3 4 4 2 7 5 2 0 5 5 6 0 6 6 2 2 2 7 5 4 6 10 13 17 17 17 17 16 16 17 16 15 12 12 9 7 7 8 8 8 9 10 10 9 10 9 9 7 7 8 6 6 6 5 5 5 5 5 5 5 4 5 4 5 5 5 5 4 4 4 4 4 5 4 2 2 2 2 1 1 2 1 0 1 0 1 2 2 3 4 3
2 3 2 4 1 5 3 2 3 0 4 1 3 3 2 2 2 2 7 9 5 2 3 7 7 7 8 11 14 12 13 14 15 13 8 7 8 7 7 7 8 8 10 9 8 8 9 10 10 10 9 11 8 8 9 6 6 6 5 6 6 6 6 6 5 5 5 5 4 5 5 5 4 5 5 5 3 4 4 3 3 3 2 2 2 2 1 2 1 1 1 1 1 2 2 4 2
1 3 5 5 4 4 3 2 2 2 0 3 2 3 1 2 1 2 9 7 2 3 4 7 9 9 11 12 14 13 13 14 13 12 14 9 8 10 9 9 9 10 11 10 8 9 8 9 11 11 11 10 9 8 7 8 7 7 8 7 6 6 6 6 4 5 5 5 5 5 5 6 6 6 5 4 5 5 4 3 4 4 4 3 3 4 3 2 3 1 1 2 2 2 1 3 1
2 3 5 8 8 5 2 1 1 1 0 1 5 2 0 3 2 7 3 5 6 5 5 5 11 12 12 11 11 11 13 14 15 13 7 7 8 11 11 9 11 11 9 9 9 8 8 9 9 10 10 9 8 9 8 7 7 8 7 7 6 7 6 5 5 5 5 5 5 5 5 5 6 5 6 5 5 5 4 4 5 3 3 3 3 5 2 4 3 3 4 3 3 3 3 2 1
3 0 6 7 5 4 3 1 3 0 0 1 4 2 1 2 1 8 2 1 6 8 5 7 8 10 11 10 11 10 11 12 9 8 14 13 12 12 12 12 11 10 10 10 9 7 7 10 10 10 10 10 10 9 8 8 8 8 7 6 7 6 5 6 6 5 5 5 5 5 5 5 6 6 6 5 5 5 5 5 5 4 5 3 4 4 3 3 4 4 2 1 1 1 2 3 2
0 3 4 6 5 4 3 3 1 0 1 3 2 1 2 0 6 8 2 3 4 6 7 7 9 7 8 8 8 8 12 10 7 9 13 14 12 11 14 12 11 11 8 9 9 8 10 10 10 10 10 9 11 11 9 8 8 7 7 7 7 6 6 5 6 6 6 5 5 6 6 6 6 6 6 6 6 5 5 5 5 5 5 5 5 4 3 2 2 2 2 1 1 1 1 3 2
3 3 2 5 4 5 6 0 1 2 1 3 1 4 6 11 15 3 0 6 5 5 5 7 8 7 7 7 9 10 7 5 9 12 12 12 11 11 13 12 12 11 9 7 7 10 9 7 8 8 10 11 12 10 9 8 8 7 7 7 6 6 6 6 7 6 6 5 6 6 6 6 6 6 6 5 5 5 5 5 5 5 5 4 4 3 4 3 4 3 3 1 2 1 3 3 3
2 2 2 3 1 5 2 2 2 2 1 2 2 5 7 8 11 4 2 4 10 8 7 8 8 7 7 8 9 10 10 10 14 15 14 12 10 10 12 10 11 11 8 8 12 12 10 9 8 8 10 11 11 11 10 9 8 8 7 7 7 7 6 7 6 6 6 6 5 6 6 6 6 6 6 6 6 5 5 5 5 6 4 3 5 5 5 4 3 4 2 3 2 2 2 3 2
2 3 7 0 5 5 5 1 6 9 1 1 4 3 10 9 7 3 3 4 5 9 8 8 8 8 8 7 9 9 10 9 9 9 10 9 9 9 10 12 12 11 12 12 11 10 11 10 9 9 10 12 12 12 10 9 9 8 8 7 7 7 7 7 7 7 7 6 6 6 6 6 6 6 6 6 6 6 5 5 6 4 4 4 4 4 3 4 4 3 2 2 3 5 2 5 1
0 5 1 4 2 4 4 2 3 1 2 1 5 6 4 7 4 1 0 6 6 7 7 7 8 9 8 8 9 9 7 7 9 11 11 11 10 10 10 11 12 13 13 11 12 11 11 11 10 11 12 12 11 11 10 8 8 8 8 8 8 8 8 7 7 6 6 6 6 6 6 6 6 6 5 6 6 6 5 5 5 4 3 4 5 5 4 4 5 4 3 2 2 4 3 4 5
5 1 3 3 4 2 4 2 2 2 2 4 1 3 7 4 2 3 2 6 5 7 9 8 8 8 9 7 7 8 9 10 12 14 16 13 12 13 11 11 11 11 11 11 11 13 13 11 10 11 10 11 11 11 11 9 9 8 7 8 7 8 8 8 7 6 7 7 7 7 7 7 6 6 6 5 6 6 6 6 5 4 4 4 4 4 5 3 3 3 4 2 3 2 4 4 6
8 4 4 5 1 3 4 4 3 7 2 5 4 6 12 12 10 4 1 2 6 11 11 6 6 7 7 7 7 9 10 11 16 15 15 14 13 12 11 11 10 10 9 11 11 11 9 9 9 10 10 10 10 10 9 8 8 7 6 7 8 8 8 7 7 7 7 7 7 7 7 7 7 7 7 6 6 5 5 4 4 4 4 4 4 4 3 3 2 1 3 4 2 2 3 3 4
7 7 5 3 6 6 4 5 2 9 6 6 7 8 13 14 13 10 2 1 7 8 5 5 7 6 6 7 8 9 11 15 15 10 9 9 11 11 11 10 10 9 10 10 11 10 10 9 8 9 10 10 8 8 8 8 7 8 8 6 7 9 8 7 7 8 7 8 7 7 8 8 7 7 7 6 7 6 5 5 5 5 5 4 5 4 4 4 5 4 5 5 3 2 3 3 3
6 4 5 8 6 5 3 4 1 1 2 8 8 8 11 12 9 9 1 0 2 4 7 9 8 7 7 8 10 12 11 16 9 5 6 9 11 10 9 9 9 9 10 10 11 11 11 12 11 13 11 9 9 9 9 9 10 8 7 11 11 9 8 7 8 7 8 8 8 8 8 8 8 8 7 6 6 6 6 5 4 4 5 5 5 6 6 7 7 5 2 2 3 3 2 3 2
1 2 4 7 6 8 3 2 1 2 4 3 2 5 11 14 10 10 1 1 7 8 10 10 10 9 8 9 12 13 14 6 5 6 7 7 8 10 9 9 9 11 11 10 12 13 12 12 13 12 9 9 11 11 11 10 10 11 10 10 8 7 8 8 9 7 8 7 8 9 8 8 8 8 7 6 6 6 6 6 5 5 5 5 5 5 4 3 2 3 2 1 2 4 3 1 1
4 5 3 4 6 2 6 1 1 1 2 7 1 4 10 15 11 8 4 7 7 7 9 10 10 8 8 10 11 12 7 11 8 10 6 7 9 10 10 10 11 13 13 13 13 12 12 12 12 10 10 10 11 11 11 11 10 9 9 7 9 5 5 7 7 6 6 7 7 8 9 8 8 8 8 7 6 6 6 6 6 6 5 5 5 4 3 4 4 5 6 5 3 0 2 2 3
7 4 4 6 2 4 5 1 0 1 2 1 0 3 9 11 6 9 9 8 9 11 8 8 7 10 12 14 14 11 11 13 13 12 12 11 9 10 9 11 12 11 11 10 12 13 11 12 11 11 11 11 11 12 11 11 10 8 6 5 6 7 6 5 5 4 7 7 8 7 7 7 8 8 7 8 7 6 6 6 5 6 6 6 6 6 5 6 5 4 4 5 3 2 2 4 3
7 6 4 2 2 2 4 3 1 1 0 2 1 4 6 8 10 6 6 3 7 10 5 6 7 9 11 7 4 9 14 14 13 11 10 7 7 11 14 14 11 12 13 13 13 13 11 13 13 13 13 13 11 10 11 9 6 5 4 2 3 2 1 3 5 8 9 8 8 8 7 5 7 7 7 8 8 7 6 5 5 6 6 6 6 5 5 6 6 5 5 4 5 6 6 4 1
6 5 8 4 2 4 2 0 3 0 3 1 1 3 6 5 6 9 9 3 5 4 5 11 12 11 10 10 14 11 10 8 11 12 12 11 12 10 10 10 11 12 12 13 12 13 12 12 12 12 11 10 11 11 11 10 9 10 8 8 8 7 9 7 11 14 9 9 9 4 5 7 6 7 6 6 7 8 8 8 7 6 6 6 6 7 7 6 6 6 6 7 6 6 6 3 2
7 7 8 6 7 4 2 2 3 2 5 2 1 9 7 5 5 6 5 3 10 8 4 10 10 11 10 12 13 13 12 11 8 8 6 7 9 7 9 10 12 13 14 11 11 12 12 12 12 13 11 10 10 10 10 10 9 9 12 13 12 12 11 10 8 4 6 4 4 5 5 5 6 6 6 6 6 7 7 7 7 6 6 5 4 5 6 6 6 7 6 5 7 5 3 5 5
7 2 9 9 5 4 6 7 8 4 1 1 1 2 5 6 10 3 2 4 8 10 9 11 12 11 11 11 13 12 12 11 11 12 11 11 10 12 14 15 14 16 14 11 11 10 12 13 11 12 11 11 10 10 10 11 12 11 11 11 11 11 12 12 6 4 3 4 5 5 4 5 6 6 6 5 5 6 7 6 7 6 6 6 6 6 7 7 6 5 4 5 4 4 5 6 6
3 3 9 9 10 9 7 7 5 2 1 7 2 0 2 6 8 3 0 4 7 10 10 10 11 10 11 12 13 13 12 11 11 12 13 13 12 13 13 12 14 13 10 10 12 12 11 11 11 10 11 10 8 9 10 11 11 12 12 11 10 9 9 6 3 4 5 4 5 4 5 5 5 6 6 6 5 6 7 7 6 6 5 5 6 7 6 6 7 6 4 5 5 6 7 7 5
4 4 5 5 6 4 5 6 6 1 2 10 7 4 4 8 5 5 1 2 6 9 11 11 10 9 8 9 10 11 8 8 9 12 10 9 10 10 10 7 5 8 7 6 6 5 6 6 9 10 11 9 9 10 11 11 12 10 10 10 12 9 5 3 4 4 4 4 5 6 5 5 5 5 6 6 6 6 6 7 7 7 7 6 4 5 6 7 6 5 6 7 7 7 5 5 6
4 6 5 3 5 3 3 4 3 3 7 11 5 6 4 6 6 9 6 6 8 9 8 6 6 5 7 9 10 8 7 8 9 10 10 10 6 6 4 8 9 5 5 6 6 6 6 7 9 11 11 9 9 11 11 12 11 10 11 11 11 10 7 6 5 4 4 4 6 6 6 6 5 6 6 6 7 6 7 7 7 6 6 7 7 7 7 5 6 7 7 5 4 5 4 3 3
10 2 4 5 1 4 2 1 2 4 9 3 1 3 1 9 5 6 7 7 6 9 11 12 8 6 6 6 6 7 7 7 7 6 9 8 6 6 4 7 7 7 5 7 7 6 7 8 8 10 9 9 8 9 10 11 10 11 10 10 10 9 8 8 9 8 7 7 6 7 5 5 5 6 6 5 6 6 6 6 6 6 6 6 7 6 6 7 4 2 3 4 5 4 3 3 2
4 4 7 9 3 2 4 1 6 10 6 1 0 2 1 14 5 7 9 8 9 8 9 9 6 7 7 6 6 5 4 5 5 7 6 5 7 7 7 7 5 5 8 8 9 8 7 7 8 10 10 7 8 8 10 10 9 10 10 10 8 7 8 8 8 7 7 7 7 6 6 7 5 6 6 6 7 7 6 6 6 7 5 4 5 6 4 4 5 4 4 3 3 4 4 4 4
7 9 7 7 4 5 7 3 2 4 5 4 1 0 6 2 6 12 18 18 17 10 8 9 9 8 8 8 5 5 4 2 4 4 4 4 4 4 3 3 4 4 4 5 5 6 6 6 7 9 8 6 6 6 8 8 9 9 8 8 8 7 8 8 8 8 8 7 7 8 8 8 8 8 7 8 7 7 6 7 7 5 5 5 5 5 4 4 4 4 4 4 4 2 3 4 3
6 2 8 7 4 4 6 4 8 6 7 1 3 1 8 5 5 7 14 9 8 6 7 7 7 8 8 6 6 6 6 5 3 3 3 4 4 4 4 4 3 3 3 3 4 4 4 5 5 7 6 6 7 7 6 8 8 7 7 7 7 6 7 7 7 8 8 8 7 7 7 6 7 7 7 7 5 6 6 5 4 4 3 4 4 3 3 3 3 4 4 3 4 3 3 3 1
7 4 4 4 11 5 5 6 4 4 2 1 2 7 3 5 3 8 8 8 8 7 7 5 9 7 6 7 7 6 5 5 3 3 3 3 4 3 3 3 3 2 2 1 2 3 5 6 6 7 8 7 7 7 7 8 8 7 7 8 8 7 6 7 6 6 6 7 7 8 7 7 6 6 5 4 4 5 4 4 4 4 4 4 4 6 6 5 5 4 5 4 4 3 6 4 3
4 6 12 8 2 6 6 2 0 1 2 9 2 6 6 7 9 13 4 2 8 5 5 5 8 6 3 7 7 6 6 5 4 4 3 3 1 1 2 2 2 2 2 3 3 3 4 5 5 6 5 5 7 8 8 7 6 6 6 6 6 7 8 8 8 8 8 6 6 6 6 6 5 5 5 5 5 4 5 4 7 7 6 6 6 5 6 5 5 6 5 5 4 3 5 5 4
7 5 9 2 2 4 5 6 1 1 6 7 3 8 3 0 8 4 7 5 9 6 7 7 5 2 5 8 7 7 7 6 3 3 3 3 1 1 1 2 2 3 3 3 3 3 3 4 5 5 4 6 4 5 5 5 6 6 6 6 7 9 9 8 8 7 5 6 4 4 5 6 5 6 6 6 8 7 6 6 6 7 6 7 7 6 5 6 6 5 5 4 3 6 6 6 5
7 8 5 7 5 8 2 5 3 5 5 4 2 1 4 7 8 4 4 8 11 11 6 3 6 5 8 8 8 6 5 4 5 4 3 1 1 1 1 2 1 1 1 0 1 1 2 2 2 4 5 4 5 4 4 4 6 7 7 8 9 7 5 5 4 5 6 6 6 6 6 6 6 7 7 7 7 8 6 5 7 6 6 7 6 6 7 7 7 6 5 5 4 5 7 6 4
1 2 3 1 3 3 4 7 3 5 7 1 9 1 9 8 7 7 11 8 8 8 5 8 9 9 8 8 7 7 7 6 5 4 3 1 1 1 1 1 1 1 1 1 2 2 3 3 4 4 4 4 5 5 6 6 4 5 5 4 3 4 5 6 7 7 7 7 7 8 8 7 6 6 7 7 6 7 6 7 6 7 7 7 8 6 7 6 7 6 5 7 4 7 8 6 4
2 2 6 1 0 2 4 1 4 5 5 4 2 5 7 7 8 10 15 15 11 9 9 8 8 8 8 8 8 7 6 6 5 3 3 3 2 1 2 2 2 2 2 2 2 3 3 3 4 5 7 6 5 5 5 5 6 6 7 6 6 6 6 6 7 7 8 7 7 7 7 7 7 6 6 7 7 6 7 7 8 7 7 7 8 7 5 6 7 7 6 6 6 7 8 4 4
9 9 7 7 6 3 6 10 3 1 2 5 3 15 1 6 6 14 17 14 11 8 6 6 6 7 8 8 7 6 6 4 3 3 3 3 2 3 3 2 2 3 3 3 2 4 3 3 4 4 5 5 6 5 6 6 6 7 7 8 7 6 7 7 8 8 8 7 7 7 8 7 8 4 5 8 8 7 7 8 8 8 7 8 7 7 5 6 7 8 6 5 6 6 6 4 5
Wind_Direction
333 332 315 308 56 101 59 0 97 314 50 256 353 44 190 168 213 87 154 337 77 280 291 50 52 69 201 196 166 150 195 135 196 133 213 235 207 128 128 126 126 123 124 126 116 111 117 129 130 127 127 121 115 120 118 116 120 112 111 108 102 95 94 98 96 95 97 96 95 96 92 87 85 86 90 91 87 85 83 82 83 84 85 84 88 90 86 82 78 77 79 84 86 85 84 83 82
320 326 333 308 114 69 299 108 99 351 41 26 251 97 241 290 82 210 181 179 196 116 94 96 88 86 69 91 120 126 30 353 185 140 27 224 108 98 139 134 138 132 127 122 117 114 114 122 124 128 133 126 120 120 122 122 126 115 115 110 109 109 105 102 103 99 88 85 91 91 93 93 94 96 97 90 88 88 88 86 85 87 90 90 92 94 88 84 81 80 82 86 87 86 83 83 83
327 355 355 19 36 70 85 37 311 63 62 317 276 211 333 138 183 214 225 214 148 140 157 115 113 80 46 67 30 42 217 350 74 214 122 139 132 166 147 135 134 127 125 124 119 119 123 133 138 144 132 123 119 121 124 129 131 120 118 115 112 106 103 103 102 100 104 99 95 91 95 101 100 91 90 92 92 91 90 89 88 88 88 90 95 94 89 86 84 82 83 86 87 87 85 83 83
339 50 33 57 248 30 56 25 93 121 286 213 303 277 186 176 209 200 246 209 146 144 206 3 53 280 105 53 117 95 65 97 211 156 135 167 165 142 143 133 128 120 115 118 122 123 128 142 150 134 127 127 124 125 127 128 128 122 120 121 112 110 108 107 102 97 96 100 98 99 97 100 103 100 92 89 90 92 88 86 86 87 89 94 97 97 94 90 87 85 85 86 87 87 85 85 85
49 321 82 90 105 3 96 111 140 95 302 201 175 272 252 210 184 198 179 207 230 256 304 135 69 338 132 124 116 108 213 76 120 237 124 76 112 141 136 132 129 127 125 123 121 126 137 144 133 130 134 130 125 124 130 130 129 125 125 118 116 111 109 107 97 99 110 106 106 104 99 97 101 101 99 97 93 92 91 87 86 86 89 95 99 98 94 92 89 87 85 86 86 86 85 85 85
47 27 354 83 60 173 54 49 343 215 217 151 183 234 218 200 164 180 166 216 257 276 230 74 159 187 16 340 162 114 197 110 191 91 144 163 139 141 139 135 130 131 127 122 122 128 145 138 135 137 136 131 119 122 131 136 135 130 123 125 120 116 115 112 106 98 98 110 101 96 100 102 100 101 101 99 95 92 95 95 92 92 93 96 101 98 94 90 86 85 84 84 85 85 86 85 86
1 37 355 32 19 55 172 141 235 206 275 163 211 226 196 197 187 141 161 103 244 225 240 148 132 90 71 313 25 168 190 207 103 193 142 150 131 137 139 138 136 131 130 126 126 133 146 146 143 135 130 131 131 123 130 137 135 131 130 129 125 123 113 110 109 108 110 108 104 107 102 102 104 103 98 94 94 94 93 92 91 91 92 94 100 100 96 91 88 83 82 82 84 85 86 86 85
84 118 320 104 233 43 78 191 243 155 269 164 227 179 188 186 161 150 172 117 204 148 8 138 136 100 231 31 160 264 354 346 184 125 122 132 136 139 139 140 142 143 132 129 132 140 150 151 139 134 135 134 138 131 130 133 138 137 136 135 128 121 115 112 112 111 107 109 104 111 111 107 106 100 96 96 96 96 96 95 96 92 90 91 99 100 95 91 88 82 82 83 84 86 86 86 87
1 84 309 80 116 41 56 218 264 232 282 284 271 242 191 176 165 149 162 224 49 115 149 190 215 88 225 51 108 272 319 7 122 122 132 135 142 144 143 146 148 147 143 129 137 145 144 149 140 140 138 137 140 143 136 137 138 138 140 137 126 123 117 115 114 110 109 112 113 110 110 110 108 107 103 101 99 100 100 98 97 96 95 96 98 101 100 92 86 79 77 77 81 86 87 88 89
29 54 278 140 130 204 7 300 120 246 225 243 200 182 171 180 185 135 153 117 186 134 224 134 113 114 141 126 351 10 75 325 126 119 137 142 145 142 147 151 150 148 151 139 143 142 147 150 146 141 137 140 142 148 141 139 141 140 141 136 127 122 120 118 115 115 109 108 113 97 97 117 112 105 100 101 103 101 97 95 94 96 97 95 98 105 104 93 87 80 77 75 77 83 87 88 91
336 12 140 84 45 144 194 266 265 312 275 324 273 247 182 126 139 185 244 156 104 159 189 184 41 122 99 247 190 252 267 196 136 152 151 145 148 147 147 146 147 148 155 147 145 143 146 146 150 142 142 141 145 143 139 144 141 141 139 136 133 123 121 121 120 118 118 116 116 85 80 106 104 104 97 95 97 94 96 97 95 96 94 94 97 103 106 97 88 78 74 72 76 78 79 83 87
334 16 4 111 173 163 229 187 268 272 301 332 227 165 189 145 98 156 197 137 194 144 183 159 185 147 61 54 288 318 40 180 160 153 149 146 150 150 142 139 145 147 151 148 143 144 136 147 145 149 142 141 138 129 141 147 138 138 139 138 135 124 125 124 122 121 123 122 114 88 94 102 105 101 99 95 91 96 94 95 95 93 96 97 95 98 101 102 92 76 71 71 74 74 73 76 81
110 92 80 96 216 185 189 147 255 304 343 270 187 214 124 123 189 196 182 131 164 137 264 224 132 79 124 179 254 298 152 205 172 149 148 149 149 142 136 140 145 144 149 148 149 148 144 140 148 147 142 140 134 126 123 126 129 138 139 134 126 123 128 131 124 123 123 119 93 80 87 86 91 95 91 88 76 82 87 85 90 95 95 99 97 99 100 100 90 73 69 69 74 73 70 71 76
119 180 126 202 47 129 142 194 314 157 263 247 242 128 154 144 247 183 140 132 205 167 270 175 136 132 79 40 300 225 209 186 164 148 143 140 139 139 142 141 141 147 151 155 157 155 150 143 142 133 137 133 126 117 121 128 132 132 128 124 121 125 121 111 110 108 98 88 83 78 78 86 88 87 85 84 85 78 79 76 86 101 105 106 104 99 96 98 87 74 68 67 71 74 74 74 75
320 136 82 119 82 79 238 130 212 169 245 181 200 138 167 258 113 141 178 145 233 242 309 29 175 124 221 149 260 208 187 174 152 143 137 133 137 140 143 144 145 152 154 160 157 159 163 147 142 142 142 138 135 127 130 127 121 120 125 126 123 114 114 117 116 110 105 100 93 87 80 81 85 89 91 91 88 84 77 74 84 103 113 113 110 104 97 92 89 78 72 66 70 73 73 72 71
152 81 79 120 238 168 265 143 34 108 258 182 127 152 153 309 158 142 249 160 172 346 161 203 69 214 164 167 212 183 162 148 148 138 135 135 136 138 143 148 153 159 163 159 162 166 161 162 145 150 145 147 144 139 132 127 120 124 129 128 125 123 125 124 120 116 112 108 106 99 93 85 83 87 91 91 94 88 83 82 85 95 106 114 109 111 102 94 90 80 76 70 69 68 64 62 62
63 80 27 39 243 164 250 151 144 209 242 232 273 152 171 216 234 195 297 119 130 194 28 303 237 15 176 205 268 144 134 132 132 137 136 141 146 145 143 154 159 166 169 169 169 169 167 168 170 154 153 152 146 141 130 128 128 121 119 127 128 132 133 130 122 116 114 115 112 111 103 97 98 96 91 98 95 97 98 89 86 85 92 106 114 111 106 97 89 83 77 66 60 51 45 49 51
22 185 112 207 202 143 212 169 192 208 154 223 197 190 143 179 190 205 68 33 49 9 53 312 336 5 256 272 163 132 131 137 146 146 157 158 159 153 164 165 163 177 175 175 178 170 172 171 179 176 161 157 157 153 142 135 133 121 118 123 127 132 132 125 124 127 124 125 124 117 118 120 110 109 109 108 109 108 101 103 97 95 91 87 95 110 102 92 93 88 81 60 49 42 44 37 26
101 111 116 226 178 240 160 197 195 157 257 211 193 180 170 200 146 207 134 219 147 115 316 358 346 338 24 74 134 129 139 143 153 158 163 166 167 169 168 166 173 171 183 174 179 182 179 170 174 185 173 173 166 158 155 140 139 120 127 130 132 138 142 134 136 127 128 133 131 125 123 126 126 121 129 132 123 119 119 115 110 107 106 102 97 98 103 100 102 88 80 63 42 31 36 26 15
230 126 233 246 213 246 221 216 240 214 155 166 182 220 177 207 154 118 182 174 226 186 175 311 197 236 159 145 148 144 149 154 161 161 170 172 177 173 163 170 181 185 183 185 179 178 176 174 182 184 179 177 176 177 156 158 155 144 142 138 142 147 150 152 145 140 134 137 136 130 127 125 124 119 120 119 110 100 98 100 102 101 100 104 101 80 68 71 69 62 62 54 38 19 19 22 9
248 136 191 239 209 288 267 168 237 252 198 208 204 94 173 214 194 152 148 125 243 251 226 173 192 180 172 166 161 156 158 161 167 169 171 176 180 183 186 182 181 182 185 179 179 185 185 182 178 183 176 182 177 181 164 172 161 149 156 152 157 162 167 165 165 155 148 147 144 140 136 124 119 121 120 114 116 121 113 111 109 101 102 97 74 85 36 26 35 42 39 39 24 10 8 2 12
96 215 231 217 262 267 252 205 229 240 206 148 146 152 210 98 62 146 156 176 207 209 213 227 181 164 157 165 173 165 169 171 173 176 179 179 182 185 184 186 185 175 171 186 188 187 184 186 180 178 177 187 184 185 190 174 161 172 169 170 164 177 176 181 186 178 165 164 159 148 135 125 127 130 138 140 145 149 146 156 163 148 123 155 49 94 53 28 12 13 67 28 351 356 349 341 343
255 300 271 246 229 259 263 333 355 161 124 155 177 210 88 163 199 189 181 198 230 223 181 186 178 174 173 162 160 173 177 181 181 183 180 182 186 188 188 183 182 184 185 195 187 189 186 186 184 174 184 187 190 179 169 169 192 189 182 173 172 187 183 185 196 195 188 177 169 157 150 152 148 155 158 161 171 174 170 175 181 185 184 190 176 151 169 86 67 14 47 12 337 351 315 304 350
150 236 4 311 174 232 304 320 344 202 160 199 192 35 158 170 194 113 205 241 252 302 249 161 156 135 138 153 178 176 182 184 190 189 186 186 184 187 185 185 191 187 191 194 190 187 187 188 184 178 188 185 190 179 179 189 195 188 191 173 187 183 179 197 198 197 187 187 184 176 167 165 164 168 181 178 191 179 190 189 179 181 210 223 189 167 173 173 58 63 33 347 352 345 332 323 326
157 300 316 284 192 246 284 292 16 352 171 179 100 140 235 183 190 105 237 235 261 348 114 128 141 152 168 170 179 189 189 193 193 193 187 189 185 176 185 191 189 186 196 196 191 188 192 187 181 184 186 189 184 180 190 191 191 190 184 189 195 184 192 197 194 182 193 190 194 185 172 171 176 177 182 195 173 196 195 185 189 205 207 226 181 229 183 208 216 181 239 268 283 264 284 280 318
115 241 297 296 285 306 313 331 36 27 316 123 105 202 331 202 255 243 235 239 223 115 120 139 148 161 176 185 185 185 193 197 196 193 193 180 173 176 192 191 190 195 200 192 186 197 190 185 183 185 186 188 186 183 192 190 191 189 195 200 198 187 200 194 182 189 195 181 196 194 189 178 182 182 189 185 182 199 198 197 197 212 213 215 193 227 224 204 220 205 245 252 252 245 244 249 245
117 331 296 289 279 316 337 205 314 335 189 185 174 213 298 326 87 272 270 203 121 105 141 159 159 178 185 186 191 194 192 199 198 195 183 187 188 190 194 192 195 201 190 197 195 195 190 185 191 186 185 185 186 189 189 191 187 196 197 199 195 201 195 185 193 195 193 195 195 189 192 188 180 185 185 186 198 196 193 189 210 205 229 226 203 229 219 219 233 216 214 224 232 250 265 309 351
50 340 312 290 291 277 278 333 274 66 289 151 149 178 262 304 74 235 253 106 143 136 157 175 192 185 189 192 192 197 202 206 200 181 196 193 199 196 196 195 197 197 195 200 197 187 183 194 191 190 187 184 187 192 191 192 193 197 195 193 201 203 187 195 198 193 201 202 190 189 190 190 181 188 185 189 195 194 195 196 207 192 222 221 208 219 219 230 229 247 239 246 262 264 289 318 326
76 70 334 296 325 288 264 219 253 85 263 135 144 65 316 313 231 238 251 126 115 136 168 186 198 203 201 198 198 198 208 202 195 203 209 206 202 196 201 197 193 198 203 197 194 186 192 193 193 193 188 186 191 193 193 196 194 195 193 197 201 194 193 197 200 203 203 199 191 191 191 192 187 182 190 192 197 197 197 195 203 211 219 208 204 210 213 222 236 240 263 344 321 345 320 290 325
80 70 150 306 315 287 265 67 340 134 247 129 105 220 256 237 238 242 298 132 106 117 175 199 205 203 206 202 203 211 209 195 208 214 213 212 205 202 207 201 197 197 193 195 191 201 195 193 193 190 192 191 195 195 192 195 195 196 195 197 195 192 197 197 206 204 203 199 194 195 192 194 194 191 181 193 191 201 203 202 205 219 222 209 203 183 199 195 212 213 239 278 271 271 278 294 338
130 200 96 214 254 263 295 159 147 141 141 144 95 217 261 255 258 255 228 174 156 182 202 202 207 209 207 207 210 212 213 207 208 211 214 214 210 210 210 205 202 200 191 195 201 202 195 195 189 195 191 195 194 198 195 197 193 194 194 195 196 194 196 202 204 201 201 205 193 200 196 194 199 195 189 182 191 192 199 209 213 223 209 194 187 195 191 199 198 217 197 232 292 313 311 300 303
133 123 217 91 181 280 293 198 158 181 278 105 112 251 246 256 268 271 250 203 178 199 200 206 210 216 214 211 215 220 221 217 231 236 231 228 219 217 212 211 205 202 201 200 203 200 204 202 193 196 190 196 196 198 197 196 194 194 195 196 194 196 198 203 203 203 201 200 199 203 199 197 198 199 191 185 187 192 196 205 217 209 187 181 190 178 167 190 208 223 229 194 250 278 308 290 293
163 190 323 224 160 246 342 212 225 129 120 352 172 217 304 291 266 312 321 184 197 207 217 211 216 220 220 219 218 222 227 235 237 234 230 222 221 219 217 215 210 206 205 201 199 201 207 206 201 200 194 197 197 198 198 197 192 195 197 197 198 194 200 205 204 202 201 199 203 206 200 198 199 197 193 188 184 190 196 206 218 202 177 185 181 178 188 198 188 215 239 215 194 253 269 277 290
227 35 216 206 181 206 240 300 237 186 137 202 243 209 236 238 250 300 326 180 189 221 228 220 217 218 220 221 225 224 224 227 228 225 224 215 217 216 217 215 213 210 211 208 204 201 204 203 204 204 200 197 196 196 197 196 196 194 197 199 199 200 205 205 203 195 202 203 200 207 204 199 199 197 192 185 184 186 190 197 209 190 175 186 186 176 210 191 195 188 242 222 196 217 266 275 286
189 173 195 255 298 224 226 167 229 138 231 187 203 230 258 263 276 253 208 182 182 220 224 230 228 230 229 226 226 229 228 228 233 225 220 215 216 216 216 215 213 212 209 208 209 209 205 206 204 206 204 198 199 195 193 193 192 196 196 198 202 208 209 208 199 202 203 201 204 203 201 202 201 197 191 181 176 174 179 190 191 186 177 192 191 192 211 188 176 182 225 254 167 222 247 260 267
180 167 186 171 194 216 217 245 274 179 172 212 194 207 242 252 256 263 197 158 186 227 258 266 241 232 233 229 232 230 230 235 238 233 224 220 219 216 214 213 214 211 209 206 210 208 208 207 205 207 207 199 195 192 183 189 185 192 199 206 215 213 208 204 205 206 199 205 203 199 201 204 201 195 189 189 179 164 169 183 192 181 185 182 193 197 206 196 203 208 226 226 254 285 218 249 249
172 180 179 213 208 255 261 244 275 251 131 222 212 223 240 248 246 261 272 242 253 245 236 235 237 229 224 231 232 233 231 234 240 234 224 219 219 217 216 212 215 213 213 208 206 209 208 206 201 209 203 195 188 189 191 189 193 197 206 206 210 204 205 202 209 208 206 208 200 201 202 204 200 198 192 186 199 175 170 176 189 188 186 190 195 208 206 204 205 207 177 153 226 267 287 222 245
200 201 198 220 202 221 227 213 351 318 175 274 239 233 257 258 263 267 249 239 255 236 232 234 233 224 225 224 235 235 235 261 278 259 228 220 216 213 210 211 209 211 216 209 207 207 208 208 207 209 197 194 196 197 194 195 197 199 197 209 205 199 199 204 212 208 211 206 203 204 205 204 203 200 193 190 196 197 179 176 187 192 186 199 206 212 216 216 155 164 155 217 196 224 252 266 203
237 220 212 218 249 265 287 270 300 333 114 263 48 206 253 260 259 267 214 227 241 235 221 225 216 227 230 230 236 241 247 248 242 240 237 224 218 213 205 209 211 212 211 208 209 206 208 210 212 207 201 196 202 200 195 201 203 203 198 198 192 200 214 211 213 208 203 210 211 208 205 202 203 208 195 188 197 202 204 187 188 185 188 186 203 224 217 219 199 191 183 201 232 182 255 262 208
242 229 188 226 198 151 275 314 40 357 135 273 163 239 275 279 267 258 246 216 236 240 233 241 209 219 223 225 222 224 232 239 238 231 227 221 211 209 207 211 213 208 212 210 209 208 207 209 208 206 205 203 203 201 200 205 202 198 203 184 188 183 190 194 205 208 207 208 217 214 218 206 200 204 198 193 193 205 202 203 193 185 188 183 192 207 210 218 204 208 187 211 196 241 211 256 216
236 209 198 180 188 249 181 259 30 311 347 91 50 334 295 263 272 282 265 241 258 267 262 262 248 235 239 256 272 218 226 227 235 235 234 224 212 213 208 210 204 208 209 208 206 206 205 205 205 204 205 205 204 197 198 195 180 174 160 93 108 121 47 170 201 222 214 209 212 210 211 200 207 207 202 197 191 199 208 211 198 198 194 187 178 198 208 211 209 210 204 190 185 209 241 234 314
242 232 200 194 187 216 254 327 146 356 296 307 157 325 279 281 275 245 257 347 277 255 220 247 243 237 237 242 241 240 237 231 226 229 224 217 216 219 215 210 207 213 213 212 206 208 204 204 204 207 209 205 204 198 193 186 187 182 174 182 186 198 209 195 206 213 208 209 213 185 190 200 208 211 203 203 202 197 199 204 205 196 197 194 185 197 211 204 211 208 204 202 208 220 229 224 254
200 253 177 202 214 207 150 161 108 240 224 287 34 207 269 323 284 246 269 309 269 284 254 256 248 242 233 234 238 238 234 237 240 249 241 224 228 225 228 218 213 212 218 207 206 207 206 206 203 203 204 205 203 199 188 186 189 192 193 198 203 205 213 223 224 209 209 205 173 191 187 184 204 210 212 200 197 198 199 196 200 203 197 193 211 204 203 207 207 208 205 190 213 202 181 227 223
228 242 168 186 175 170 195 178 192 231 283 296 65 152 215 272 262 253 315 309 282 288 273 257 250 241 235 233 237 238 234 230 227 229 225 222 217 207 214 212 209 214 213 204 207 203 203 206 201 202 202 203 201 195 190 190 193 195 199 206 207 209 210 223 204 187 160 164 181 188 180 187 192 201 207 207 199 194 197 197 198 200 199 197 182 199 208 211 213 222 191 202 197 184 188 205 224
216 188 154 168 182 192 181 176 194 228 156 261 255 174 249 240 266 301 335 282 276 266 263 259 249 239 236 237 239 237 232 229 220 225 222 217 213 214 218 216 217 218 211 204 205 203 202 201 201 199 203 200 198 191 191 195 199 198 202 204 212 220 218 218 156 149 156 163 184 187 188 187 184 192 197 200 205 197 194 201 196 196 205 210 200 211 215 202 202 207 194 184 197 210 203 213 206
260 130 79 79 70 72 147 164 161 220 163 238 210 181 220 277 272 300 338 248 268 264 259 249 249 242 241 250 255 249 244 236 227 229 232 225 222 223 221 231 237 223 215 219 222 205 203 195 199 198 203 196 194 192 192 197 199 197 203 205 211 213 200 171 149 158 165 166 187 194 197 191 185 186 193 197 203 203 200 205 203 197 200 216 193 204 206 206 207 203 200 198 204 217 206 197 211
110 112 80 36 45 85 51 81 114 81 238 236 209 210 190 283 236 220 197 219 208 251 272 273 260 275 260 247 246 246 241 233 228 229 229 230 230 238 221 216 225 220 210 200 205 201 194 194 197 201 205 195 191 194 190 198 196 198 206 205 208 209 189 174 166 170 161 165 192 198 197 199 186 192 190 200 201 202 206 202 210 208 203 196 197 198 205 204 209 203 205 201 200 205 200 182 203
136 131 128 90 9 17 43 339 49 189 247 263 278 197 139 221 290 272 231 252 223 221 241 253 270 276 271 268 250 247 242 238 240 238 240 236 252 249 223 234 226 218 198 202 202 194 195 197 192 203 205 197 192 193 192 198 194 200 207 204 206 204 183 183 188 188 181 186 192 196 195 190 199 194 191 198 202 203 205 203 203 217 217 205 205 194 205 202 186 152 151 174 199 199 180 172 171
150 106 127 158 238 84 226 69 214 216 214 214 343 175 13 244 226 275 260 246 264 230 227 242 241 268 284 286 273 259 245 254 243 234 238 233 221 219 214 231 220 210 205 205 203 196 195 192 193 198 207 193 190 188 194 195 195 201 201 202 205 191 184 184 188 189 185 190 190 187 181 196 190 195 197 196 204 198 198 207 206 206 194 196 194 203 204 169 176 179 176 172 164 173 178 162 165
158 162 168 151 152 188 206 248 336 326 278 273 230 31 265 274 289 237 256 251 243 242 229 237 242 248 264 276 297 307 301 255 244 249 243 232 222 224 228 221 211 209 212 210 211 201 198 195 194 197 208 183 184 185 191 192 200 200 196 198 195 180 187 182 186 188 192 195 188 190 190 192 193 200 194 200 200 196 194 207 206 198 201 186 176 183 185 183 168 170 164 169 179 158 137 154 173
206 85 152 183 146 167 207 186 199 213 203 255 280 108 233 129 244 218 235 261 278 267 242 239 239 243 256 279 289 288 286 289 247 252 242 235 238 223 221 217 212 209 200 193 192 200 188 202 191 196 196 189 179 189 185 194 197 193 190 191 186 181 181 182 188 192 189 192 193 190 195 191 192 196 196 202 189 195 202 193 183 197 176 158 152 137 129 118 118 96 93 96 90 98 99 106 93
203 171 75 152 219 128 179 205 157 197 175 267 215 209 182 176 247 283 243 254 270 257 260 251 260 249 256 277 265 255 258 265 271 265 279 266 246 248 259 265 253 240 239 221 195 173 179 196 189 195 196 189 186 184 191 191 197 190 187 184 185 177 176 179 188 195 197 191 190 189 191 190 191 183 178 162 175 169 172 153 118 105 103 102 109 117 111 107 109 114 109 104 99 101 97 97 128
208 117 202 216 85 101 91 54 264 116 45 252 143 311 282 299 312 277 290 283 266 250 252 242 249 254 239 243 246 244 245 253 256 255 260 273 286 247 233 246 261 243 208 205 204 190 186 172 178 188 195 185 189 192 191 193 184 176 182 176 170 174 176 182 189 193 194 189 179 184 177 177 164 160 157 147 128 119 100 103 115 105 93 94 89 84 99 104 96 85 87 85 91 88 95 82 70
99 190 224 184 135 115 142 208 342 140 202 255 98 217 286 134 258 303 320 288 270 263 237 231 251 266 229 237 236 233 230 233 254 268 259 256 241 187 196 228 220 214 220 207 212 210 185 172 169 168 166 176 194 176 171 164 158 166 167 175 181 183 184 189 186 183 169 153 152 145 138 145 158 147 139 135 121 103 103 109 105 102 107 98 93 90 93 90 90 85 93 88 88 95 86 63 26
182 195 180 141 215 232 271 105 217 186 231 272 299 276 258 189 227 342 284 249 250 252 242 255 255 239 234 235 241 246 259 275 263 256 246 230 184 165 154 191 261 238 218 176 87 121 129 143 158 156 169 168 161 157 150 155 163 167 175 179 181 181 177 165 157 148 147 146 144 143 139 134 124 125 118 110 106 111 111 105 109 102 94 89 89 80 72 67 77 82 68 77 32 76 83 76 32
88 66 183 199 114 206 139 206 173 137 248 185 284 28 246 190 208 209 262 246 241 254 247 222 225 221 221 227 232 229 230 230 238 237 209 187 184 191 173 137 75 72 82 99 122 119 115 131 124 110 102 118 129 140 148 148 153 143 134 118 122 143 148 144 143 140 136 134 137 130 127 119 117 109 108 105 104 108 111 101 86 89 84 80 78 70 77 81 77 73 77 63 40 75 73 69 59
196 153 197 213 343 229 112 30 142 189 186 185 217 276 255 242 210 198 227 243 236 216 225 226 226 228 226 226 223 222 223 226 226 206 169 166 166 105 69 87 125 116 103 96 107 128 142 129 130 146 141 142 139 142 131 128 126 124 126 128 126 125 120 120 117 120 120 119 115 113 106 115 103 94 109 108 109 108 105 101 94 86 90 91 88 81 77 92 87 81 69 80 79 81 84 72 77
177 169 198 173 104 109 184 239 39 95 158 231 144 253 270 256 191 199 215 230 237 223 198 231 243 238 232 235 236 223 228 223 194 164 156 163 106 84 81 81 79 90 76 85 97 112 109 116 131 127 122 132 133 130 128 126 122 121 118 114 108 106 112 110 110 111 113 115 117 116 122 110 100 89 103 110 105 108 102 98 96 93 88 87 87 85 83 94 99 92 73 71 81 89 95 85 69